This is the latest recevied weather packets stored in our database for station/object DO6DD-13. If no packets are shown the sender has not sent any weather packets the latest 10 day(s).
| Time | Temp. | Humidity | Pressure | Rain* | Wind** | Luminosity | Snow |
|---|---|---|---|---|---|---|---|
| 1777794624 | 18.33° C | 74% | 1012.2 hPa | - | - | 100 W/m² | - |
| 1777794024 | 17.78° C | 76% | 1012.3 hPa | - | - | 106 W/m² | - |
| 1777793423 | 17.78° C | 76% | 1012.2 hPa | - | - | 74 W/m² | - |
| 1777792823 | 17.22° C | 80% | 1012.4 hPa | - | - | 78 W/m² | - |
| 1777792232 | 16.67° C | 82% | 1012.5 hPa | - | - | 78 W/m² | - |
| 1777791622 | 16.67° C | 84% | 1012.4 hPa | - | - | 94 W/m² | - |
| 1777791021 | 16.11° C | 85% | 1012.2 hPa | - | - | 82 W/m² | - |
| 1777790421 | 16.11° C | 87% | 1012 hPa | - | - | 82 W/m² | - |
| 1777789820 | 15.56° C | 88% | 1012 hPa | - | - | 66 W/m² | - |
| 1777789220 | 15.56° C | 88% | 1011.9 hPa | - | - | 68 W/m² | - |
| 1777788619 | 15° C | 91% | 1011.9 hPa | - | - | 66 W/m² | - |
| 1777788019 | 14.44° C | 93% | 1012 hPa | - | - | 62 W/m² | - |
| 1777787418 | 14.44° C | 93% | 1012.1 hPa | - | - | 46 W/m² | - |
| 1777786817 | 13.89° C | 93% | 1012.2 hPa | - | - | 48 W/m² | - |
| 1777786217 | 13.89° C | 93% | 1012.3 hPa | - | - | 38 W/m² | - |
| 1777785616 | 13.89° C | 93% | 1012.3 hPa | - | - | 32 W/m² | - |
| 1777785026 | 13.89° C | 94% | 1012.3 hPa | - | - | 28 W/m² | - |
| 1777784425 | 13.33° C | 94% | 1012.3 hPa | - | - | 30 W/m² | - |
| 1777783825 | 13.33° C | 94% | 1012.4 hPa | - | - | 30 W/m² | - |
| 1777783225 | 13.33° C | 94% | 1012.5 hPa | - | - | 30 W/m² | - |
| 1777782624 | 13.33° C | 94% | 1012.7 hPa | - | - | 24 W/m² | - |
| 1777782024 | 13.33° C | 94% | 1012.9 hPa | - | - | 18 W/m² | - |
| 1777781423 | 13.33° C | 94% | 1013.1 hPa | - | - | 10 W/m² | - |
| 1777780823 | 13.33° C | 94% | 1013.1 hPa | - | - | 6 W/m² | - |
| 1777780222 | 13.33° C | 94% | 1013.2 hPa | - | - | 4 W/m² | - |
* Rain since midnight (hover to see other rain measurements)
** Current wind speed in m/s (hover to see current wind gust speed)